Weather History for KPOU - February, 2014

Change the Weather History Date:

Thursday, February 13, 2014

  Actual Average Record
Temperature  
Mean Temperature 24 °F 28 °F  
Max Temperature 30 °F 39 °F 60 °F (1951)
Min Temperature 18 °F 17 °F -19 °F (1967)
Degree Days  
Heating Degree Days 41 37  
Month to date heating degree days 579 492  
Since 1 July heating degree days 4113 4044  
Cooling Degree Days 0 0  
Month to date cooling degree days 0 0  
Year to date cooling degree days 0 0  
Moisture  
Dew Point 20 °F    
Average Humidity 84    
Maximum Humidity 93    
Minimum Humidity 58    
Precipitation  
Precipitation 0.62 in 0.09 in 2.64 in (2008)
Month to date precipitation 1.83 1.21  
Year to date precipitation 3.33 4.29  
Sea Level Pressure  
Sea Level Pressure 29.69 in    
Wind  
Wind Speed 8 mph (North)    
Max Wind Speed 20 mph    
Max Gust Speed 29 mph    
Visibility 2 miles    
Events Fog , Snow , Thunderstorm    
T = Trace of Precipitation, MM = Missing Value Source: NWS Daily Summary

Daily Weather History Graph

Daily Weather History Graph

Search for Another Location

Airport or City:

Trip Planner

Search our weather history database for the weather conditions in past years. The results will help you decide how hot, cold, wet, or windy it might be!

Date:

Astronomy

Feb. 13, 2014 Rise Set
Actual Time 6:53 AM EST 5:26 PM EST
Civil Twilight 6:24 AM EST 5:55 PM EST
Nautical Twilight 5:52 AM EST 6:27 PM EST
Astronomical Twilight 5:20 AM EST 6:59 PM EST
Moon 4:32 PM EST (2/13) 5:45 AM EST (2/13)
Length of Visible Light 11h 30m
Length of Day
10h 33m
Waxing Gibbous, 98% of the Moon is Illuminated
Feb 13
Waxing Gibbous
Feb 14
Full
Feb 22
Last Quarter
Mar 1
New
Mar 8
First Quarter

Hourly Weather History & Observations

Time (EST) Temp. Windchill Dew Point Humidity Pressure Visibility Wind Dir Wind Speed Gust Speed Precip Events Conditions
12:53 AM 19.0 °F 13.9 °F 7.0 °F 59% 30.32 in 10.0 mi NNE 3.5 mph - N/A   Overcast
1:50 AM 19.4 °F - 6.8 °F 58% 30.29 in 9.0 mi Calm Calm - N/A   Overcast
1:53 AM 19.9 °F - 8.1 °F 60% 30.29 in 6.0 mi Calm Calm - 0.00 in Snow Light Snow
2:08 AM 19.0 °F - 9.0 °F 65% 30.28 in 2.5 mi Calm Calm - 0.00 in Snow Light Snow
2:18 AM 19.0 °F - 10.0 °F 68% 30.27 in 2.0 mi Calm Calm - 0.00 in Snow Light Snow
2:25 AM 19.0 °F - 10.9 °F 71% 30.27 in 1.5 mi Calm Calm - 0.00 in Snow Light Snow
2:53 AM 18.0 °F 12.7 °F 12.9 °F 81% 30.25 in 1.5 mi North 3.5 mph - 0.00 in Snow Light Snow
3:30 AM 18.0 °F 9.8 °F 14.0 °F 84% 30.22 in 2.0 mi North 5.8 mph - 0.01 in Snow Light Snow
3:45 AM 18.0 °F 9.8 °F 14.0 °F 84% 30.21 in 4.0 mi North 5.8 mph - 0.01 in Snow Light Snow
3:53 AM 18.0 °F 9.8 °F 12.9 °F 81% 30.20 in 5.0 mi North 5.8 mph - 0.01 in Snow Light Snow
4:31 AM 19.0 °F 12.3 °F 14.0 °F 81% 30.21 in 2.5 mi NNE 4.6 mph - 0.00 in Snow Light Snow
4:53 AM 19.0 °F 12.3 °F 15.1 °F 85% 30.20 in 1.8 mi North 4.6 mph - 0.00 in Snow Light Snow
5:00 AM 19.0 °F 12.3 °F 15.1 °F 85% 30.20 in 1.2 mi NNE 4.6 mph - 0.00 in Snow Light Snow
5:26 AM 19.0 °F 11.1 °F 15.1 °F 85% 30.18 in 0.8 mi NNE 5.8 mph - 0.01 in Snow Light Snow
5:42 AM 19.0 °F 11.1 °F 16.0 °F 88% 30.16 in 1.0 mi NNE 5.8 mph - 0.02 in Snow Light Snow
5:53 AM 19.0 °F 13.9 °F 16.0 °F 88% 30.16 in 1.0 mi North 3.5 mph - 0.02 in Snow Light Snow
6:53 AM 19.9 °F 14.9 °F 16.0 °F 85% 30.12 in 1.8 mi NNE 3.5 mph - 0.02 in Snow Light Snow
7:53 AM 19.9 °F 12.1 °F 17.1 °F 89% 30.08 in 0.5 mi North 5.8 mph - 0.02 in Fog , Snow Light Snow
8:48 AM 21.2 °F 16.4 °F 17.6 °F 86% 30.03 in 0.2 mi North 3.5 mph - 0.03 in Fog , Snow Snow
8:53 AM 21.9 °F 14.5 °F 18.0 °F 85% 30.02 in 0.2 mi North 5.8 mph - 0.03 in Fog , Snow Snow
9:06 AM 21.9 °F 14.5 °F 19.0 °F 89% 30.00 in 0.5 mi North 5.8 mph - 0.01 in Fog , Snow Snow
9:37 AM 23.0 °F 13.1 °F 19.0 °F 85% 29.98 in 0.5 mi North 9.2 mph - 0.02 in Fog , Snow Snow
9:53 AM 23.0 °F 12.4 °F 19.0 °F 85% 29.95 in 0.5 mi North 10.4 mph - 0.03 in Fog , Snow Snow
10:32 AM 23.0 °F 11.7 °F 19.0 °F 85% 29.90 in 0.2 mi North 11.5 mph - 0.00 in Fog , Snow Snow
10:53 AM 23.0 °F 12.4 °F 19.9 °F 88% 29.89 in 0.2 mi North 10.4 mph - 0.01 in Fog , Snow Snow
11:05 AM 23.0 °F 12.4 °F 19.9 °F 88% 29.88 in 0.2 mi North 10.4 mph - 0.00 in Fog , Snow Heavy Snow
11:53 AM 23.0 °F 11.1 °F 19.9 °F 88% 29.82 in 0.2 mi North 12.7 mph - 0.04 in Fog Light Freezing Fog
12:53 PM 24.1 °F 13.1 °F 19.9 °F 84% 29.74 in 0.2 mi North 11.5 mph - 0.02 in Fog Light Freezing Fog
1:53 PM 25.0 °F 13.1 °F 21.9 °F 88% 29.64 in 0.2 mi North 13.8 mph - 0.01 in Fog , Snow Snow
2:53 PM 26.1 °F 12.7 °F 21.9 °F 84% 29.58 in 1.0 mi North 18.4 mph 24.2 mph 0.03 in Snow Snow
3:02 PM 26.1 °F 12.7 °F 21.9 °F 84% 29.57 in 0.8 mi North 18.4 mph - 0.00 in Snow Snow
3:15 PM 27.0 °F 13.5 °F 23.0 °F 85% 29.54 in 1.0 mi North 19.6 mph 26.5 mph 0.01 in Snow Snow
3:30 PM 27.0 °F 15.6 °F 23.0 °F 85% 29.53 in 1.0 mi North 13.8 mph 25.3 mph 0.01 in Snow Snow
3:40 PM 27.0 °F 15.2 °F 23.0 °F 85% 29.51 in 1.0 mi North 15.0 mph 23.0 mph 0.01 in Snow Snow
3:48 PM 26.6 °F 13.4 °F 23.0 °F 86% 29.49 in 0.8 mi North 18.4 mph 27.6 mph 0.01 in Snow Snow
3:53 PM 27.0 °F 14.3 °F 23.0 °F 85% 29.48 in 0.8 mi NNE 17.3 mph 27.6 mph 0.01 in Snow Snow
4:00 PM 27.0 °F 16.7 °F 24.1 °F 89% 29.50 in 1.0 mi North 11.5 mph 24.2 mph 0.00 in Snow Snow
4:30 PM 28.0 °F 16.1 °F 24.1 °F 85% 29.47 in 1.5 mi North 16.1 mph 23.0 mph 0.00 in Snow Snow
4:44 PM 28.0 °F 15.7 °F 24.1 °F 85% 29.45 in 2.0 mi North 17.3 mph 28.8 mph 0.00 in Snow Snow
4:53 PM 28.0 °F 16.5 °F 24.1 °F 85% 29.44 in 2.5 mi North 15.0 mph 25.3 mph 0.00 in   Overcast
5:01 PM 28.0 °F 16.1 °F 24.1 °F 85% 29.45 in 3.0 mi North 16.1 mph 26.5 mph N/A   Overcast
5:12 PM 28.0 °F 15.7 °F 24.1 °F 85% 29.43 in 2.5 mi North 17.3 mph 27.6 mph N/A   Overcast
5:53 PM 28.9 °F 16.9 °F 25.0 °F 85% 29.40 in 2.0 mi North 17.3 mph 27.6 mph 0.01 in   Overcast
6:21 PM 28.9 °F 16.9 °F 25.0 °F 85% 29.38 in 3.0 mi North 17.3 mph 25.3 mph N/A   Overcast
6:53 PM 28.9 °F 16.1 °F 25.0 °F 85% 29.34 in 4.0 mi North 19.6 mph 26.5 mph N/A   Overcast
7:13 PM 30.0 °F 18.7 °F 26.1 °F 85% 29.33 in 3.0 mi North 16.1 mph 23.0 mph N/A   Overcast
7:53 PM 30.0 °F 20.0 °F 26.1 °F 85% 29.29 in 5.0 mi North 12.7 mph 26.5 mph N/A   Overcast
8:53 PM 28.9 °F 16.9 °F 25.0 °F 85% 29.20 in 4.0 mi North 17.3 mph 25.3 mph N/A   Overcast
9:31 PM 28.9 °F 16.9 °F 25.0 °F 85% 29.14 in 3.0 mi North 17.3 mph 24.2 mph N/A   Overcast
9:39 PM 30.0 °F 18.3 °F 26.1 °F 85% 29.13 in 2.0 mi North 17.3 mph 25.3 mph N/A   Overcast
9:53 PM 30.0 °F 19.5 °F 26.1 °F 85% 29.12 in 2.0 mi North 13.8 mph 25.3 mph N/A Thunderstorm Overcast
10:01 PM 30.0 °F 20.0 °F 26.1 °F 85% 29.12 in 1.8 mi North 12.7 mph 20.7 mph N/A Thunderstorm Overcast
10:10 PM 30.0 °F 20.0 °F 26.1 °F 85% 29.14 in 2.0 mi North 12.7 mph - N/A   Overcast
10:19 PM 30.0 °F 21.1 °F 26.1 °F 85% 29.15 in 1.8 mi NNE 10.4 mph - N/A   Overcast
10:36 PM 28.9 °F 19.8 °F 26.1 °F 89% 29.13 in 0.8 mi NNW 10.4 mph - 0.11 in Snow Light Snow
10:50 PM 30.2 °F 21.9 °F 26.6 °F 86% 29.13 in 0.5 mi NNW 9.2 mph - 0.21 in Fog , Snow Snow
10:53 PM 30.0 °F 20.0 °F 27.0 °F 88% 29.13 in 0.5 mi North 12.7 mph - 0.23 in Fog , Snow Snow
11:11 PM 30.0 °F 22.4 °F 27.0 °F 88% 29.15 in 1.0 mi NNE 8.1 mph - 0.08 in Snow Light Snow
11:28 PM 30.0 °F 20.5 °F 27.0 °F 88% 29.13 in 0.8 mi NNE 11.5 mph - 0.09 in Snow Light Snow
11:48 PM 28.4 °F 18.5 °F 26.6 °F 93% 29.10 in 0.5 mi North 11.5 mph - 0.12 in Fog , Snow Snow
11:53 PM 28.9 °F 18.2 °F 27.0 °F 92% 29.09 in 0.5 mi NNE 13.8 mph - 0.12 in Fog , Snow Snow